Time,TemperatureF,DewpointF,PressureIn,WindDirection,WindDirectionDegrees,WindSpeedMPH,WindSpeedGustMPH,Humidity,HourlyPrecipIn,Conditions,Clouds,dailyrainin,SoftwareType,DateUTC
2016-02-08 00:01:00,43.5,11.0,30.11,NNW,347,0.0,0.0,26,0.00,,,0.00,weatherlink.com 1.10,2016-02-08 05:01:00,
2016-02-08 00:16:00,44.1,11.0,30.11,NNW,347,0.0,0.0,26,0.00,,,0.00,weatherlink.com 1.10,2016-02-08 05:16:00,
2016-02-08 00:31:00,43.5,14.0,30.10,NNW,347,0.0,0.0,30,0.00,,,0.00,weatherlink.com 1.10,2016-02-08 05:31:00,
2016-02-08 00:46:00,43.6,5.0,30.10,NNW,347,0.0,0.0,20,0.00,,,0.00,weatherlink.com 1.10,2016-02-08 05:46:00,
2016-02-08 01:01:00,43.2,7.0,30.10,North,349,0.0,0.0,22,0.00,,,0.00,weatherlink.com 1.10,2016-02-08 06:01:00,
2016-02-08 01:16:00,43.7,0.0,30.10,North,349,0.0,0.0,16,0.00,,,0.00,weatherlink.com 1.10,2016-02-08 06:16:00,
2016-02-08 01:31:00,43.7,12.0,30.10,North,349,0.0,0.0,28,0.00,,,0.00,weatherlink.com 1.10,2016-02-08 06:31:00,
2016-02-08 01:46:00,42.7,16.0,30.09,North,349,0.0,0.0,34,0.00,,,0.00,weatherlink.com 1.10,2016-02-08 06:46:00,
2016-02-08 02:01:00,42.0,-4.0,30.09,North,349,0.0,0.0,14,0.00,,,0.00,weatherlink.com 1.10,2016-02-08 07:01:00,
2016-02-08 02:16:00,41.4,-53.0,30.08,North,349,0.0,0.0,1,0.00,,,0.00,weatherlink.com 1.10,2016-02-08 07:16:00,
2016-02-08 02:46:00,41.3,-53.0,30.07,North,349,0.0,0.0,1,0.00,,,0.00,weatherlink.com 1.10,2016-02-08 07:46:00,
2016-02-08 03:01:00,41.6,-53.0,30.07,North,349,0.0,0.0,1,0.00,,,0.00,weatherlink.com 1.10,2016-02-08 08:01:00,
2016-02-08 03:16:00,41.9,-53.0,30.06,North,349,0.0,0.0,1,0.00,,,0.00,weatherlink.com 1.10,2016-02-08 08:16:00,
2016-02-08 03:31:00,41.2,-53.0,30.06,North,349,0.0,0.0,1,0.00,,,0.00,weatherlink.com 1.10,2016-02-08 08:31:00,
2016-02-08 03:46:00,41.4,-53.0,30.06,North,349,0.0,0.0,1,0.00,,,0.00,weatherlink.com 1.10,2016-02-08 08:46:00,
2016-02-08 04:32:00,41.3,-53.0,30.06,North,349,0.0,0.0,1,0.00,,,0.00,weatherlink.com 1.10,2016-02-08 09:32:00,
2016-02-08 04:47:00,41.5,-53.0,30.07,North,349,0.0,0.0,1,0.00,,,0.00,weatherlink.com 1.10,2016-02-08 09:47:00,
2016-02-08 06:49:00,39.8,-54.0,30.10,NNW,336,0.0,0.0,1,0.00,,,0.00,weatherlink.com 1.10,2016-02-08 11:49:00,
2016-02-08 07:02:00,40.6,-54.0,30.10,NNW,336,0.0,0.0,1,0.00,,,0.00,weatherlink.com 1.10,2016-02-08 12:02:00,
2016-02-08 07:17:00,41.1,-53.0,30.10,NNW,336,0.0,0.0,1,0.00,,,0.00,weatherlink.com 1.10,2016-02-08 12:17:00,
2016-02-08 07:47:00,42.9,-52.0,30.11,NNW,336,0.0,0.0,1,0.00,,,0.00,weatherlink.com 1.10,2016-02-08 12:47:00,
2016-02-08 08:02:00,44.8,-51.0,30.11,NNW,336,0.0,0.0,1,0.00,,,0.00,weatherlink.com 1.10,2016-02-08 13:02:00,
2016-02-08 08:18:00,48.5,-49.0,30.12,NNW,336,0.0,0.0,1,0.00,,,0.00,weatherlink.com 1.10,2016-02-08 13:18:00,
2016-02-08 08:33:00,50.2,-48.0,30.12,ESE,114,0.0,0.0,1,0.00,,,0.00,weatherlink.com 1.10,2016-02-08 13:33:00,
2016-02-08 08:48:00,53.4,-46.0,30.13,East,84,0.0,1.0,1,0.00,,,0.00,weatherlink.com 1.10,2016-02-08 13:48:00,
2016-02-08 09:03:00,54.8,34.0,30.13,SSE,153,0.0,1.0,45,0.00,,,0.00,weatherlink.com 1.10,2016-02-08 14:03:00,
2016-02-08 09:18:00,55.5,41.0,30.13,SSE,153,0.0,1.0,58,0.00,,,0.00,weatherlink.com 1.10,2016-02-08 14:18:00,
2016-02-08 09:33:00,57.3,45.0,30.14,SSE,159,2.0,3.0,63,0.00,,,0.00,weatherlink.com 1.10,2016-02-08 14:33:00,
2016-02-08 09:48:00,58.8,47.0,30.14,ENE,68,0.0,2.0,65,0.00,,,0.00,weatherlink.com 1.10,2016-02-08 14:48:00,
2016-02-08 10:03:00,59.5,48.0,30.14,SW,232,0.0,1.0,65,0.00,,,0.00,weatherlink.com 1.10,2016-02-08 15:03:00,
2016-02-08 10:18:00,59.5,46.0,30.14,South,190,0.0,3.0,62,0.00,,,0.00,weatherlink.com 1.10,2016-02-08 15:18:00,
2016-02-08 10:33:00,60.1,48.0,30.14,SW,217,1.0,3.0,65,0.00,,,0.00,weatherlink.com 1.10,2016-02-08 15:33:00,
2016-02-08 10:48:00,60.0,47.0,30.13,WSW,238,2.0,3.0,63,0.00,,,0.00,weatherlink.com 1.10,2016-02-08 15:48:00,
2016-02-08 11:03:00,60.6,48.0,30.12,NW,305,2.0,4.0,63,0.00,,,0.00,weatherlink.com 1.10,2016-02-08 16:03:00,
2016-02-08 11:18:00,61.5,48.0,30.11,SSW,209,2.0,5.0,61,0.00,,,0.00,weatherlink.com 1.10,2016-02-08 16:18:00,
2016-02-08 11:33:00,62.7,48.0,30.11,SSW,211,4.0,7.0,60,0.00,,,0.00,weatherlink.com 1.10,2016-02-08 16:33:00,
2016-02-08 11:49:00,63.7,49.0,30.10,SW,221,7.0,10.0,60,0.00,,,0.00,weatherlink.com 1.10,2016-02-08 16:49:00,
2016-02-08 12:04:00,63.2,49.0,30.09,SSW,206,7.0,10.0,60,0.00,,,0.00,weatherlink.com 1.10,2016-02-08 17:04:00,
2016-02-08 12:19:00,63.8,49.0,30.09,SSW,197,3.0,13.0,60,0.00,,,0.00,weatherlink.com 1.10,2016-02-08 17:19:00,
2016-02-08 12:34:00,63.7,50.0,30.08,SW,225,11.0,11.0,62,0.00,,,0.00,weatherlink.com 1.10,2016-02-08 17:34:00,
2016-02-08 12:49:00,63.7,49.0,30.07,WSW,253,5.0,9.0,60,0.00,,,0.00,weatherlink.com 1.10,2016-02-08 17:49:00,
2016-02-08 13:04:00,64.1,50.0,30.06,SSW,204,9.0,12.0,61,0.00,,,0.00,weatherlink.com 1.10,2016-02-08 18:04:00,
2016-02-08 13:19:00,64.6,51.0,30.05,SW,230,6.0,12.0,62,0.00,,,0.00,weatherlink.com 1.10,2016-02-08 18:19:00,
2016-02-08 13:34:00,64.1,51.0,30.04,WSW,250,6.0,12.0,62,0.00,,,0.00,weatherlink.com 1.10,2016-02-08 18:34:00,
2016-02-08 13:49:00,64.7,51.0,30.03,SSW,199,7.0,14.0,62,0.00,,,0.00,weatherlink.com 1.10,2016-02-08 18:49:00,
2016-02-08 14:04:00,64.4,51.0,30.03,SSE,160,7.0,13.0,63,0.00,,,0.00,weatherlink.com 1.10,2016-02-08 19:04:00,
2016-02-08 14:19:00,65.2,52.0,30.03,SW,226,7.0,13.0,62,0.00,,,0.00,weatherlink.com 1.10,2016-02-08 19:19:00,
2016-02-08 14:34:00,64.9,52.0,30.02,South,173,5.0,12.0,63,0.00,,,0.00,weatherlink.com 1.10,2016-02-08 19:34:00,
2016-02-08 14:49:00,64.2,52.0,30.01,SW,224,8.0,12.0,64,0.00,,,0.00,weatherlink.com 1.10,2016-02-08 19:49:00,
2016-02-08 15:04:00,64.8,52.0,30.01,SSW,212,7.0,13.0,64,0.00,,,0.00,weatherlink.com 1.10,2016-02-08 20:04:00,
2016-02-08 15:20:00,65.5,53.0,30.00,SW,218,10.0,15.0,64,0.00,,,0.00,weatherlink.com 1.10,2016-02-08 20:20:00,
2016-02-08 15:35:00,66.3,53.0,30.00,SW,219,8.0,12.0,63,0.00,,,0.00,weatherlink.com 1.10,2016-02-08 20:35:00,
2016-02-08 15:50:00,66.4,53.0,30.00,South,188,5.0,14.0,63,0.00,,,0.00,weatherlink.com 1.10,2016-02-08 20:50:00,
2016-02-08 16:05:00,65.4,53.0,30.00,South,184,7.0,14.0,64,0.00,,,0.00,weatherlink.com 1.10,2016-02-08 21:05:00,
2016-02-08 16:20:00,65.0,53.0,29.99,South,188,5.0,11.0,65,0.00,,,0.00,weatherlink.com 1.10,2016-02-08 21:20:00,
2016-02-08 16:35:00,64.5,52.0,29.99,SW,218,10.0,11.0,65,0.00,,,0.00,weatherlink.com 1.10,2016-02-08 21:35:00,
2016-02-08 16:50:00,64.5,52.0,29.99,South,179,7.0,11.0,64,0.00,,,0.00,weatherlink.com 1.10,2016-02-08 21:50:00,
2016-02-08 17:05:00,64.7,52.0,29.99,WSW,250,9.0,10.0,64,0.00,,,0.00,weatherlink.com 1.10,2016-02-08 22:05:00,
2016-02-08 17:20:00,64.5,52.0,29.98,WSW,250,6.0,11.0,65,0.00,,,0.00,weatherlink.com 1.10,2016-02-08 22:20:00,
2016-02-08 17:35:00,64.2,52.0,29.98,West,268,7.0,12.0,65,0.00,,,0.00,weatherlink.com 1.10,2016-02-08 22:35:00,
2016-02-08 17:50:00,63.8,52.0,29.99,SW,228,4.0,9.0,65,0.00,,,0.00,weatherlink.com 1.10,2016-02-08 22:50:00,
2016-02-08 18:05:00,63.5,51.0,29.98,SW,221,4.0,9.0,65,0.00,,,0.00,weatherlink.com 1.10,2016-02-08 23:05:00,
2016-02-08 18:20:00,63.4,51.0,29.98,WSW,257,3.0,8.0,64,0.00,,,0.00,weatherlink.com 1.10,2016-02-08 23:20:00,
2016-02-08 18:36:00,62.9,50.0,29.98,West,272,2.0,7.0,62,0.00,,,0.00,weatherlink.com 1.10,2016-02-08 23:36:00,
2016-02-08 18:51:00,62.8,49.0,29.97,WSW,250,2.0,5.0,60,0.00,,,0.00,weatherlink.com 1.10,2016-02-08 23:51:00,
2016-02-08 19:06:00,62.5,48.0,29.97,SW,221,3.0,7.0,59,0.00,,,0.00,weatherlink.com 1.10,2016-02-09 00:06:00,
2016-02-08 19:21:00,62.3,47.0,29.97,SSW,205,2.0,5.0,58,0.00,,,0.00,weatherlink.com 1.10,2016-02-09 00:21:00,
2016-02-08 19:36:00,62.4,45.0,29.97,WSW,250,4.0,5.0,54,0.00,,,0.00,weatherlink.com 1.10,2016-02-09 00:36:00,
2016-02-08 19:51:00,62.8,46.0,29.97,SW,227,2.0,6.0,54,0.00,,,0.00,weatherlink.com 1.10,2016-02-09 00:51:00,
2016-02-08 20:06:00,62.9,45.0,29.98,SSW,210,4.0,6.0,52,0.00,,,0.00,weatherlink.com 1.10,2016-02-09 01:06:00,
2016-02-08 20:21:00,63.2,44.0,29.97,SSW,212,5.0,7.0,50,0.00,,,0.00,weatherlink.com 1.10,2016-02-09 01:21:00,
2016-02-08 20:36:00,63.7,44.0,29.98,WSW,254,7.0,7.0,49,0.00,,,0.00,weatherlink.com 1.10,2016-02-09 01:36:00,